Home > Time Zones > World Clock > Weather > India > Moga > Past weeks

Flag for India Weather past 2 weeks in Moga, Punjab, India

Now
88 °F

Passing clouds.


Feels Like: 85 °F
Forecast: 78 / 108 °F
Wind: No wind

Location: Amritsar Airport

Current Time: May 27, 2015 at 10:25:42 PM

Latest Report: May 27, 2015 at 9:30 PM


Visibility: 2 mi

Pressure: 29.62 "Hg

Humidity: 27%

Dew point: 50 °F

Location of MogaLocation

Historic Weather in Moga — Graph

°F

Moga temperature yesterday

Maximum temperature yesterday: 102 °F (at 2:30 PM)
Minimum temperature yesterday: 75 °F (at 5:30 AM)
Average temperature yesterday: 90 °F

Past Weeks' High & Low Weather Summary

 TemperatureHumidityPressure
High109 °F (May 23, 2:30 PM)100% (May 13, 2:00 AM)29.89 "Hg (May 13, 2:00 AM)
Low68 °F (May 13, 2:00 AM)7% (May 27, 4:00 PM)29.42 "Hg (May 23, 4:00 PM)
Average89 °F41%29.62 "Hg
* Reported May 12 8:30 PM — May 27 9:00 PM, Moga, Weather by CustomWeather, © 2015

Note: Actual official high and low records may vary slightly from our data, if they occured in-between our weather recording intervals... More about our weather records

Advertising

Moga weather history for previous 24 hours

 ConditionsComfort  
Time TempWeatherWind HumidityBarometerVisibility
9:00 PM
Wed, May 27
91 °FPassing clouds.6 mph21%29.62 "Hg2 mi
8:30 PM91 °FPassing clouds.No wind17%29.59 "Hg2 mi
8:00 PM95 °FPassing clouds.No wind15%29.59 "Hg3 mi
7:30 PM99 °FPassing clouds.No wind14%29.59 "Hg3 mi
7:00 PM100 °FPassing clouds.1 mph12%29.59 "Hg4 mi
6:30 PM104 °FScattered clouds.No wind9%29.59 "Hg4 mi
6:00 PM104 °FScattered clouds.1 mph8%29.59 "Hg4 mi
5:30 PM104 °FPassing clouds.1 mph9%29.59 "Hg4 mi
5:00 PM106 °FClear.5 mph8%29.59 "Hg4 mi
4:30 PM106 °FClear.3 mph7%29.59 "Hg4 mi
4:00 PM106 °FClear.7 mph7%29.62 "Hg4 mi
3:30 PM106 °FClear.3 mph9%29.62 "Hg4 mi
3:00 PM106 °FClear.2 mph10%29.62 "Hg4 mi
2:30 PM106 °FClear.5 mph9%29.65 "Hg4 mi
2:00 PM104 °FClear.6 mph11%29.65 "Hg4 mi
1:30 PM104 °FClear.2 mph11%29.65 "Hg4 mi
1:00 PM104 °FClear.3 mph12%29.68 "Hg4 mi
12:30 PM102 °FPassing clouds.3 mph12%29.68 "Hg3 mi
12:00 PM102 °FPassing clouds.2 mph12%29.68 "Hg3 mi
11:30 AM100 °FPassing clouds.No wind12%29.68 "Hg3 mi
11:00 AM99 °FPassing clouds.No wind14%29.71 "Hg3 mi
10:30 AM97 °FDuststorm.No wind16%29.71 "Hg3 mi
10:00 AM95 °FSunny.6 mph18%29.68 "Hg3 mi
9:30 AM93 °FSunny.9 mph20%29.68 "Hg3 mi
9:00 AM91 °FSunny.9 mph20%29.68 "Hg3 mi
8:30 AM88 °FSunny.7 mph25%29.68 "Hg3 mi
8:00 AM84 °FDuststorm.5 mph31%29.68 "Hg3 mi
7:30 AM81 °FDuststorm.No wind34%29.68 "Hg3 mi
7:00 AM77 °FDuststorm.No wind42%29.68 "Hg3 mi
6:00 AM77 °FHaze.No wind36%29.65 "Hg2 mi
5:30 AM77 °FHaze.2 mph34%29.65 "Hg2 mi
5:00 AM77 °FHaze.No wind32%29.65 "Hg2 mi
4:30 AM79 °FHaze.No wind34%29.65 "Hg2 mi
3:30 AM81 °FHaze.No wind37%29.65 "Hg2 mi
2:30 AM82 °FDuststorm.No wind30%29.65 "Hg2 mi
2:00 AM82 °FDuststorm.No wind28%29.65 "Hg2 mi
1:30 AM82 °FDuststorm.No wind28%29.65 "Hg2 mi
1:00 AM82 °FDuststorm.No wind26%29.65 "Hg2 mi
12:30 AM84 °FDuststorm.No wind25%29.65 "Hg2 mi
12:00 AM84 °FDuststorm.No wind25%29.65 "Hg2 mi
11:30 PM
Tue, May 26
86 °FDuststorm.No wind24%29.65 "Hg2 mi
11:00 PM84 °FDuststorm.No wind27%29.65 "Hg2 mi
10:30 PM84 °FDuststorm.No wind27%29.65 "Hg2 mi
10:00 PM84 °FDuststorm.No wind20%29.65 "Hg2 mi
Weather by CustomWeather, © 2015

See weather overviewHow to use our weather pages